(104855) = 2000 HK76

Discovered at Socorro on 2000-04-27 by LINEAR.

Orbit

Orbit type: Main Belt

Note: WebGL enabled browser required.

epoch2024-03-31.0
epoch JD2460400.5
perihelion date2021-03-05.09485
perihelion JD2459278.59485
argument of perihelion (°)185.11608
ascending node (°)59.97116
inclination (°)15.94681
eccentricity0.1199860
perihelion distance (AU)2.6224461
Tisserand w.r.t. Jupiter3.2
ΔV w.r.t. Earth (km/sec)11.3
semimajor axis (AU)2.9800050
mean anomaly (°)214.94854
mean daily motion (°/day)0.19159240
aphelion distance (AU)3.338
period (years)5.14
P-vector [x]-0.42420881
P-vector [y]-0.82078940
P-vector [z]-0.38255934
Q-vector [x]0.87376554
Q-vector [y]-0.26002758
Q-vector [z]-0.41099810
absolute magnitude14.9
phase slope0.15
uncertainty0
referenceMPEC 2024-E144
observations used905
oppositions20
arc length (days)9187
first opposition used1999
last opposition used2024
residual rms (arc-secs)0.72
perturbers coarse indicatorM-v
perturbers precise indicator003Ek
first observation date used1999-01-14.0
last observation date used2024-03-10.0
computer nameMPCLINUX
JD of orbit computation2456671.006780
perihelion JD uncertainty (days)2.5663E-04
argument of perihelion uncertainty (°)4.8072E-05
ascending node uncertainty (°)2.6064E-05
inclination uncertainty (°)9.7630E-06
eccentricity uncertainty 8.4427E-08
perihelion distance uncertainty (AU)2.5395E-07
Minimum Orbit Intersection Distances (in AU)
for orbit epoch: 2460400.5, reference: E2024-EE4
Mercury2.15752
Venus1.89787
Earth1.60976
Mars1.08357
Jupiter1.67585
Saturn5.74814
Uranus15.581
Neptune26.5174

Observations

924 total observations over interval: 1999 01 14.32797 – 2024 03 10.204370
These data are available for download (format description).

Date (UT) J2000 RA J2000 Dec Magn Location Ref
1999 01 14.32797 09 17 08.74 +37 29 33.9 20.0   704 – Lincoln Laboratory ETS, New Mexico MPS 39071
1999 01 14.35096 09 17 07.50 +37 29 44.7 20.0   704 – Lincoln Laboratory ETS, New Mexico MPS 39071
1999 01 14.37393 09 17 06.56 +37 29 53.9 20.2   704 – Lincoln Laboratory ETS, New Mexico MPS 39071
1999 01 14.39687 09 17 05.25 +37 30 05.5 20.3   704 – Lincoln Laboratory ETS, New Mexico MPS 39071
1999 01 14.42161 09 17 04.27 +37 30 17.0 19.5   704 – Lincoln Laboratory ETS, New Mexico MPS 39071
2000 04 27.40219 15 15 29.95 -10 43 36.1 18.0   704 – Lincoln Laboratory ETS, New Mexico MPS 14649
2000 04 27.41475 15 15 29.33 -10 43 36.0 18.1   704 – Lincoln Laboratory ETS, New Mexico MPS 14649
2000 04 27.43029 15 15 28.43 -10 43 39.3 18.0   704 – Lincoln Laboratory ETS, New Mexico MPS 14649
2000 04 27.44284 15 15 27.74 -10 43 40.1 18.0   704 – Lincoln Laboratory ETS, New Mexico MPS 14649
2000 04 27.45581 15 15 27.01 -10 43 41.5 18.5   704 – Lincoln Laboratory ETS, New Mexico MPS 14649
2000 04 30.29285 15 12 50.70 -10 49 23.1 18.2 R 699 – Lowell Observatory-LONEOS MPS 14649
2000 04 30.31186 15 12 49.66 -10 49 24.3   699 – Lowell Observatory-LONEOS MPS 14649
2000 04 30.33089 15 12 48.54 -10 49 28.3   699 – Lowell Observatory-LONEOS MPS 14649
2000 04 30.34988 15 12 47.43 -10 49 30.0   699 – Lowell Observatory-LONEOS MPS 14649
2000 05 05.32998 15 08 01.38 -11 00 13.9 18.7   704 – Lincoln Laboratory ETS, New Mexico MPS 14649
2000 05 05.34207 15 08 00.63 -11 00 17.2 18.7   704 – Lincoln Laboratory ETS, New Mexico MPS 14649
2000 05 05.35407 15 07 59.89 -11 00 18.0 19.0   704 – Lincoln Laboratory ETS, New Mexico MPS 14649
2000 05 05.37810 15 07 58.52 -11 00 23.0 19.0   704 – Lincoln Laboratory ETS, New Mexico MPS 14649
2000 05 28.16882 14 46 47.29 -12 06 54.8 18.4   704 – Lincoln Laboratory ETS, New Mexico MPS 15854
2000 05 28.17030 14 46 47.19 -12 06 54.4 18.6   704 – Lincoln Laboratory ETS, New Mexico MPS 15854
2000 05 28.18222 14 46 46.63 -12 06 57.4 18.2   704 – Lincoln Laboratory ETS, New Mexico MPS 15854
2000 05 28.19713 14 46 45.89 -12 07 01.0 18.4   704 – Lincoln Laboratory ETS, New Mexico MPS 15854
2000 05 28.19969 14 46 45.62 -12 07 01.0 18.4 R 699 – Lowell Observatory-LONEOS MPS 15854
2000 05 28.20030 14 46 45.72 -12 07 01.5 18.3   704 – Lincoln Laboratory ETS, New Mexico MPS 15854
2000 05 28.21054 14 46 45.23 -12 07 03.6 18.4   704 – Lincoln Laboratory ETS, New Mexico MPS 15854
2000 05 28.21465 14 46 45.02 -12 07 03.6 18.7   704 – Lincoln Laboratory ETS, New Mexico MPS 15855
2000 05 28.22395 14 46 44.55 -12 07 06.5 18.4   704 – Lincoln Laboratory ETS, New Mexico MPS 15855
2000 05 28.24070 14 46 43.74 -12 07 10.4   699 – Lowell Observatory-LONEOS MPS 15855
2000 05 28.26446 14 46 42.60 -12 07 16.7   699 – Lowell Observatory-LONEOS MPS 15855
2000 05 28.28820 14 46 41.35 -12 07 21.8   699 – Lowell Observatory-LONEOS MPS 15855
2000 05 29.18189 14 45 59.29 -12 10 38.6 18.8   704 – Lincoln Laboratory ETS, New Mexico MPS 15855
2000 05 29.19528 14 45 58.60 -12 10 42.0 19.4   704 – Lincoln Laboratory ETS, New Mexico MPS 15855
2000 05 29.20867 14 45 57.94 -12 10 44.8 19.2   704 – Lincoln Laboratory ETS, New Mexico MPS 15855
2001 08 12.39107 23 25 18.17 -29 29 22.5 19.7   644 – Palomar Mountain/NEAT MPS 39071
2001 08 12.40230 23 25 17.72 -29 29 27.5 19.7   644 – Palomar Mountain/NEAT MPS 39071
2001 08 12.41335 23 25 17.27 -29 29 32.0 19.5   644 – Palomar Mountain/NEAT MPS 39071
2001 08 26.26579 23 14 41.85 -30 52 58.7 19.8   644 – Palomar Mountain/NEAT MPS 39071
2001 08 26.27621 23 14 41.32 -30 53 02.1 19.4   644 – Palomar Mountain/NEAT MPS 39071
2001 08 26.28674 23 14 40.75 -30 53 05.2 19.0   644 – Palomar Mountain/NEAT MPS 39071
2002 10 31.43164 03 26 58.33 +13 48 09.7 20.3   644 – Palomar Mountain/NEAT MPS 123979
2002 10 31.45276 03 26 57.20 +13 48 09.3 20.2   644 – Palomar Mountain/NEAT MPS 123979
2002 10 31.47374 03 26 56.09 +13 48 09.4 20.6   644 – Palomar Mountain/NEAT MPS 123979
2003 12 17.33285 08 33 48.01 +36 04 17.7 19.4   704 – Lincoln Laboratory ETS, New Mexico MPS 123979
2003 12 17.34662 08 33 47.65 +36 04 25.2 19.8   704 – Lincoln Laboratory ETS, New Mexico MPS 123979
2003 12 17.36037 08 33 47.28 +36 04 30.9 19.8   704 – Lincoln Laboratory ETS, New Mexico MPS 123979
2003 12 17.37360 08 33 46.87 +36 04 36.8 19.9   704 – Lincoln Laboratory ETS, New Mexico MPS 123979
2003 12 29.34501 08 26 39.72 +37 36 37.5 19.7   704 – Lincoln Laboratory ETS, New Mexico MPS 123979
2003 12 29.35865 08 26 39.14 +37 36 43.5 19.8   704 – Lincoln Laboratory ETS, New Mexico MPS 123979
2003 12 29.37227 08 26 38.40 +37 36 49.1 20.1   704 – Lincoln Laboratory ETS, New Mexico MPS 123979
2003 12 29.38579 08 26 37.80 +37 36 56.6 19.7   704 – Lincoln Laboratory ETS, New Mexico MPS 123979
2003 12 29.39969 08 26 37.19 +37 37 02.6 20.1   704 – Lincoln Laboratory ETS, New Mexico MPS 123979
2004 01 19.27586 08 07 10.76 +39 50 34.3 19.3   704 – Lincoln Laboratory ETS, New Mexico MPS 108463
2004 01 19.28850 08 07 09.89 +39 50 37.8 19.1   704 – Lincoln Laboratory ETS, New Mexico MPS 108463
2004 01 19.30118 08 07 09.01 +39 50 41.3 19.3   704 – Lincoln Laboratory ETS, New Mexico MPS 108463
2004 01 19.31411 08 07 08.21 +39 50 45.2 19.2   704 – Lincoln Laboratory ETS, New Mexico MPS 108463
2004 01 19.32690 08 07 07.37 +39 50 50.2 19.3   704 – Lincoln Laboratory ETS, New Mexico MPS 108463
2004 01 28.14531 07 57 53.44 +40 25 36.9 20.4 V 703 – Catalina Sky Survey MPS 108463
2004 01 28.15561 07 57 52.67 +40 25 38.7 19.5 V 703 – Catalina Sky Survey MPS 108463
2004 01 28.16595 07 57 52.11 +40 25 40.2 19.8 V 703 – Catalina Sky Survey MPS 108463
2004 01 28.17626 07 57 51.40 +40 25 41.9 20.4 V 703 – Catalina Sky Survey MPS 108463
2004 02 09.25972 07 46 18.47 +40 47 21.8 19.6   644 – Palomar Mountain/NEAT MPS 98663
2004 02 09.33284 07 46 14.58 +40 47 24.7 19.5   644 – Palomar Mountain/NEAT MPS 98663
2004 02 09.39587 07 46 11.27 +40 47 26.4 19.4   644 – Palomar Mountain/NEAT MPS 98663
2005 04 04.39657 14 28 36.48 -00 07 16.9 18.2 R 703 – Catalina Sky Survey MPS 130611
2005 04 04.40464 14 28 36.04 -00 07 16.7 18.1 R 703 – Catalina Sky Survey MPS 130611
2005 04 04.41270 14 28 35.72 -00 07 16.5 18.3 R 703 – Catalina Sky Survey MPS 130611
2005 04 04.42074 14 28 35.32 -00 07 15.7 18.3 R 703 – Catalina Sky Survey MPS 130611
2005 04 09.28777 14 24 49.61 -00 03 02.2 18.8   704 – Lincoln Laboratory ETS, New Mexico MPS 131539
2005 04 09.29771 14 24 49.08 -00 03 03.6 18.9   704 – Lincoln Laboratory ETS, New Mexico MPS 131539
2005 04 09.30954 14 24 48.48 -00 03 01.8 19.4   704 – Lincoln Laboratory ETS, New Mexico MPS 131539
2005 04 09.31923 14 24 48.08 -00 03 00.3 19.6   704 – Lincoln Laboratory ETS, New Mexico MPS 131539
2005 04 09.33001 14 24 47.49 -00 03 01.2 19.1   704 – Lincoln Laboratory ETS, New Mexico MPS 131539
2005 04 13.35516 14 21 23.11 -00 00 47.3 18.3 R 703 – Catalina Sky Survey MPS 131539
2005 04 13.36175 14 21 22.76 -00 00 47.2 18.2 R 703 – Catalina Sky Survey MPS 131539
2005 04 13.36829 14 21 22.43 -00 00 47.7 18.0 R 703 – Catalina Sky Survey MPS 131539
2005 04 13.37484 14 21 22.07 -00 00 47.4 17.9 R 703 – Catalina Sky Survey MPS 131539
2005 04 18.36769 14 16 52.76 -00 00 04.9 18.8   704 – Lincoln Laboratory ETS, New Mexico MPS 132513
2005 04 18.37731 14 16 52.19 -00 00 04.6 18.7   704 – Lincoln Laboratory ETS, New Mexico MPS 132513
2005 04 18.38633 14 16 51.78 -00 00 03.8 19.0   704 – Lincoln Laboratory ETS, New Mexico MPS 132513
2005 04 18.39539 14 16 51.25 -00 00 03.9 18.9   704 – Lincoln Laboratory ETS, New Mexico MPS 132513
2005 04 18.40440 14 16 50.74 -00 00 05.3 19.2   704 – Lincoln Laboratory ETS, New Mexico MPS 132513
2005 05 06.25001 14 00 16.02 -00 22 07.0 19.1   704 – Lincoln Laboratory ETS, New Mexico MPS 133226
2005 05 06.26002 14 00 15.51 -00 22 07.7 19.3   704 – Lincoln Laboratory ETS, New Mexico MPS 133226
2005 05 06.27008 14 00 14.91 -00 22 10.0 19.3   704 – Lincoln Laboratory ETS, New Mexico MPS 133226
2005 05 06.28009 14 00 14.39 -00 22 12.2 19.1   704 – Lincoln Laboratory ETS, New Mexico MPS 133226
2005 05 06.29025 14 00 13.78 -00 22 12.1 19.0   704 – Lincoln Laboratory ETS, New Mexico MPS 133226
2005 05 08.28993 13 58 29.17 -00 27 26.9 18.5 V 703 – Catalina Sky Survey MPS 133855
